Weather in Jijiga

Ethiopia     9°20′50″N   42°47′57″E
temp.,
°C
wind,
m/s
gust,
m/s
humid.,
%
clouds,
%
prec.,
mm/h
press.,
hPa
HPBL,
m
22 april, thu
thu2200:00+18se227248 0.1 101524
03:00+17nnw1174100 0.4 101411
06:00+17e11756 0.0 101511
09:00+23se455094 0.0 10161329
12:00+27sse5433100 0.0 10133182
15:00+24wsw5544100 0.0 10111413
18:00+21ssw4561100 0.1 1013348
21:00+18w117492 0.3 101512
23 april, fri
fri2300:00+18sw227794 0.1 101512
03:00+16sw1183100 0.1 101313
06:00+15wsw118997 0.0 101511
09:00+21ssw346469 0.0 1016908
12:00+26sse433899 0.0 10122577
15:00+28se3325100 0.0 10083223
18:00+24ssw244584 0.0 1011253
21:00+20sse46656 0.1 1014252
24 april, sat
sat2400:00+18ssw22796 0.8 101446
03:00+16w118766 2.5 101327
06:00+17sw218460 0.1 101414
09:00+22ssw455992 0.1 10151100
12:00+27s533979 0.0 10112761
15:00+24se554799 0.0 1010576
18:00+22ssw685981 0.3 1011512
21:00+18sw228075 2.6 101445
25 april, sun
sun2500:00+18sw1284100 1.2 1015130
03:00+17s239077 3.1 101360
06:00+18ssw248297 3.3 101587
09:00+19ssw347593 8.3 1016313
12:00+21ssw4465100 2.8 1014882
15:00+21s2471100 6.0 1012475
18:00+19ssw1179100 4.7 101326
21:00+18sse2385100 6.5 1014102
26 april, mon
mon2600:00+18ese2388100 5.6 1015142
03:00+17ene1293100 12.6 1014112
06:00+16w3393100 13.8 1015119
09:00+16wsw0191100 21.9 1017130
12:00+16s2396100 8.8 1017228
15:00+18sw3584100 10.8 1014572
18:00+17sw3587100 0.1 1015455
21:00+16sw129370 0.1 101566